This is the latest recevied weather packets stored in our database for station/object KI4HRG. If no packets are shown the sender has not sent any weather packets the latest 10 day(s).
| Time | Temp. | Humidity | Pressure | Rain* | Wind** | Luminosity | Snow |
|---|---|---|---|---|---|---|---|
| 1777729620 | 13.33° C | 64% | 1015.1 hPa | 0 mm | - | 338 W/m² | - |
| 1777729318 | 13.33° C | 68% | 1015.2 hPa | 0 mm | - | 544 W/m² | - |
| 1777729014 | 12.22° C | 70% | 1015.1 hPa | 0 mm | - | 216 W/m² | - |
| 1777728711 | 12.22° C | 71% | 1015.2 hPa | 0 mm | - | 84 W/m² | - |
| 1777728407 | 12.22° C | 68% | 1015 hPa | 0 mm | - | 88 W/m² | - |
| 1777728105 | 12.22° C | 68% | 1014.9 hPa | 0 mm | - | 80 W/m² | - |
| 1777727802 | 12.22° C | 70% | 1014.8 hPa | 0 mm | - | 74 W/m² | - |
| 1777727498 | 12.22° C | 73% | 1014.6 hPa | 0 mm | - | 56 W/m² | - |
| 1777727196 | 12.22° C | 75% | 1014.3 hPa | 0 mm | - | 50 W/m² | - |
| 1777726894 | 12.22° C | 74% | 1014.6 hPa | 0 mm | - | 52 W/m² | - |
| 1777726590 | 12.22° C | 69% | 1014.3 hPa | 0 mm | - | 63 W/m² | - |
| 1777726287 | 12.22° C | 69% | 1014.3 hPa | 0 mm | - | 78 W/m² | - |
| 1777725984 | 12.22° C | 70% | 1014.3 hPa | 0 mm | - | 70 W/m² | - |
| 1777725681 | 12.22° C | 70% | 1014.2 hPa | 0 mm | - | 60 W/m² | - |
| 1777725379 | 12.22° C | 69% | 1014.2 hPa | 0 mm | - | 66 W/m² | - |
| 1777725076 | 12.22° C | 71% | 1014.1 hPa | 0 mm | - | 52 W/m² | - |
| 1777724773 | 12.22° C | 69% | 1014.1 hPa | 0 mm | - | 42 W/m² | - |
| 1777724469 | 12.22° C | 72% | 1014.3 hPa | 0 mm | - | 37 W/m² | - |
| 1777724167 | 12.22° C | 71% | 1014.1 hPa | 0 mm | - | 37 W/m² | - |
| 1777723864 | 12.22° C | 70% | 1014.2 hPa | 0 mm | - | 43 W/m² | - |
| 1777723561 | 12.22° C | 70% | 1013.9 hPa | 0 mm | - | 47 W/m² | - |
| 1777723258 | 12.22° C | 68% | 1013.9 hPa | 0 mm | - | 42 W/m² | - |
| 1777722956 | 12.22° C | 69% | 1013.8 hPa | 0 mm | - | 34 W/m² | - |
| 1777722651 | 12.22° C | 68% | 1013.7 hPa | 0 mm | - | 29 W/m² | - |
| 1777722348 | 12.22° C | 69% | 1013.5 hPa | 0 mm | - | 24 W/m² | - |
* Rain latest hour (hover to see other rain measurements)
** Current wind speed in m/s (hover to see current wind gust speed)